SCP
0 0 0 0 0 0 0 0 0 0 0 0 0 0 0 0 0 0 0 0 0 0 0 0 0 0 0 0 0 0 0 0 0 0 0 0 0 0 0 0 0 0 0
0 0 0 0 0 0 0 0 0 0 0 0 0 0 0 0 0 0 0 0 0 0 0 0 0 0 0 0 0 0 0 0 0 0 0 0 0 0 0 0 0 0 0
0 0 0 0 0 0 0 0 0 0 0 0 0 0 0 0 0 0 0 0 0 0 0 0 0 0 0 0 0 0 0 0 0 0 0 0 0 0 0 0 0 0 0
0 0 0 0 0 0 0 0 0 0 0 0 0 0 0 0 0 0 0 0 0 0 0 0 0 0 0 0 0 0 0 0 0 0 0 0 0 0 0 0 0 0 0
0 0 0 0 0 0 0 0 0 0 0 0 0 0 0 0 0 0 0 0 0 0 0 0 0 0 0 0 0 0 0 0 0 0 0 0 0 0 0 0 0 0 0
0 0 0 0 0 0 0 0 0 0 0 0 0 0 0 0 0 0 0 0 0 0 0 0 0 0 0 0 0 0 0 0 0 0 0 0 0 0 0 0 0 0 0
0 0 0 0 0 0 0 0 0 0 0 0 0 0 0 0 0 0 0 0 0 0 0 0 0 0 0 0 0 0 0 0 0 0 0 0 0 0 0 0 0 0 0
0 0 0 0 0 0 0 0 0 0 0 0 0 0 0 0 0 0 0 0 0 0 0 0 0 0 0 0 0 0 0 0 0 0 0 0 0 0 0 0 0 0 0
0 0 0 0 0 0 0 0 0 0 0 0 0 0 0 0 0 0 0 0 0 0 0 0 0 0 0 0 0 0 0 0 0 0 0 0 0 0 0 0 0 0 0
0 0 0 0 0 0 0 0 0 0 0 0 0 0 0 0 0 0 0 0 0 0 0 0 0 0 0 0 0 0 0 0 0 0 0 0 0 0 0 0 0 0 0
0 0 0 0 0 0 0 0 0 0 0 0 0 0 0 0 0 0 0 0 0 0 0 0 0 0 0 0 0 0 0 0 0 0 0 0 0 0 0 0 0 0 0
0 0 0 0 0 0 0 0 0 0 0 0 0 0 0 0 0 0 0 0 0 0 0 0 0 0 0 0 0 0 0 0 0 0 0 0 0 0 0 0 0 0 0
0 0 0 0 0 0 0 0 0 0 0 0 0 0 0 0 0 0 0 0 0 0 0 0 0 0 0 0 0 0 0 0 0 0 0 0 0 0 0 0 0 0 0
0 0 0 0 0 0 0 0 0 0 0 0 0 0 0 0 0 0 0 0 0 0 0 0 0 0 0 0 0 0 0 0 0 0 0 0 0 0 0 0 0 0 0
0 0 0 0 0 0 0 0 0 0 0 0 0 0 0 0 0 0 0 0 0 0 0 0 0 0 0 0 0 0 0 0 0 0 0 0 0 0 0 0 0 0 0
0 0 0 0 0 0 0 0 0 0 0 0 0 0 0 0 0 0 0 0 0 0 0 0 0 0 0 0 0 0 0 0 0 0 0 0 0 0 0 0 0 0 0
0 0 0 0 0 0 0 0 0 0 0 0 0 0 0 0 0 0 0 0 0 0 0 0 0 0 0 0 0 0 0 0 0 0 0 0 0 0 0 0 0 0 0
0 0 0 0 0 0 0 0 0 0 0 0 0 0 0 0 0 0 0 0 0 0 0 0 0 0 0 0 0 0 0 0 0 0 0 0 0 0 0 0 0 0 0
0 0 0 0 0 0 0 0 0 0 0 0 0 0 0 0 0 0 0 0 0 0 0 0 0 0 0 0 0 0 0 0 0 0 0 0 0 0 0 0 0 0 0
0 0 0 0 0 0 0 0 0 0 0 0 0 0 0 0 0 0 0 0 0 0 0 0 0 0 0 0 0 0 0 0 0 0 0 0 0 0 0 0 0 0 0
0 0 0 0 0 0 0 0 0 0 0 0 0 0 0 0 0 0 0 0 0 0 0 0 0 0 0 0 0 0 0 0 0 0 0 0 0 0 0 0 0 0 0
0 0 0 0 0 0 0 0 0 0 0 0 0 0 0 0 0 0 0 0 0 0 0 0 0 0 0 0 0 0 0 0 0 0 0 0 0 0 0 0 0 0 0
0 0 0 0 0 0 0 0 0 0 0 0 0 0 0 0 0 0 0 0 0 0 0 0 0 0 0 0 0 0 0 0 0 0 0 0 0 0 0 0 0 0 0
0 0 0 0 0 0 0 0 0 0 0 0 0 0 0 0 0 0 0 0 0 0 0 0 0 0 0 0 0 0 0 0 0 0 0 0 0 0 0 0 0 0 0
0 0 0 0 0 0 0 0 0 0 0 0 0 0 0 0 0 0 0 0 0 0 0 0 0 0 0 0 0 0 0 0 0 0 0 0 0 0 0 0 0 0 0
0 0 0 0 0 0 0 0 0 0 0 0 0 0 0 0 0 0 0 0 0 0 0 0 0 0 0 0 0 0 0 0 0 0 0 0 0 0 0 0 0 0 0
Wind_Speed
3 2 2 1 1 1 1 1 1 1 1 1 1 1 1 1 1 1 1 4 5 4 5 6 6 7 7 7 8 8 8 8 8 8 8 8 9 9 9 10 10 9 9
3 3 2 1 1 1 1 0 0 0 1 1 1 1 1 1 1 1 1 2 5 5 6 6 7 7 8 8 8 9 9 9 9 8 9 9 9 10 10 10 10 10 10
4 3 2 1 1 1 1 1 1 1 1 2 2 2 1 2 1 2 2 1 2 4 6 7 7 8 8 9 9 10 10 9 9 9 9 9 9 10 10 10 11 10 9
3 3 2 1 1 1 1 1 1 1 1 1 1 1 1 1 2 2 2 2 2 2 4 7 8 9 9 10 10 10 10 10 10 10 10 9 9 10 10 11 10 10 10
3 3 2 1 2 2 1 1 1 1 1 1 1 1 1 1 1 2 2 2 2 3 3 5 8 8 9 10 11 11 11 11 10 10 10 10 10 10 10 10 10 10 10
3 3 2 2 2 2 1 1 1 1 1 1 2 2 2 2 1 2 2 3 3 4 4 4 4 5 9 10 11 12 12 11 11 10 10 10 10 9 9 10 10 10 10
3 3 2 2 2 2 2 1 1 1 2 1 2 2 3 2 2 2 2 2 3 4 3 4 3 3 4 9 11 12 12 12 12 11 11 10 9 9 10 10 11 11 11
2 2 3 2 2 2 2 2 2 1 1 1 2 1 2 3 3 2 2 2 3 3 3 4 4 4 4 3 7 13 13 13 12 12 11 11 10 10 10 10 11 11 11
2 2 2 2 2 2 2 2 2 2 1 0 1 2 1 1 3 3 2 2 3 3 3 3 4 4 4 4 5 8 12 13 13 12 12 12 11 11 11 11 11 11 11
2 2 2 2 2 2 2 2 2 2 3 1 0 0 1 2 1 2 3 2 3 3 3 3 4 4 4 4 6 10 12 12 13 13 13 13 12 12 12 11 11 11 10
1 1 2 2 1 1 2 1 1 2 2 2 1 0 0 0 1 1 3 4 3 2 3 3 3 3 4 4 4 8 12 12 13 13 13 13 12 13 12 11 10 10 10
1 1 1 1 1 1 1 1 1 2 2 2 1 1 1 1 1 1 2 3 3 3 3 2 2 3 3 3 6 11 11 11 12 12 12 12 12 12 12 12 11 10 10
1 1 0 0 1 1 1 1 1 1 2 2 2 1 1 1 1 1 1 2 3 3 2 2 2 2 3 3 5 10 9 11 12 12 12 12 11 11 11 10 10 10 10
1 0 0 0 0 1 1 1 1 1 1 2 2 1 1 1 1 1 1 1 2 2 2 3 2 2 3 3 5 9 6 10 11 11 11 11 11 11 10 10 10 10 10
0 0 0 0 0 0 1 2 1 1 1 2 2 2 1 1 1 1 1 1 1 3 4 3 2 3 3 3 6 4 4 8 11 11 11 11 10 10 10 10 10 10 11
0 0 0 0 0 0 1 1 1 1 1 1 1 2 2 2 1 1 1 1 1 2 3 3 3 4 4 4 6 4 4 9 9 10 10 11 10 10 10 10 10 10 11
0 0 1 1 1 1 1 1 1 1 1 1 1 2 3 2 1 1 1 1 1 1 3 4 3 3 3 4 4 4 4 4 5 9 10 10 10 10 10 9 10 10 11
0 1 1 1 1 1 1 2 2 1 2 2 2 2 2 2 2 2 2 2 2 1 2 4 4 3 3 3 4 4 4 4 4 8 10 10 10 10 10 10 10 10 11
1 1 1 1 1 1 1 2 2 2 2 3 2 3 3 2 3 2 2 2 2 1 1 2 4 3 3 3 3 4 4 4 4 6 8 9 10 10 10 11 10 11 11
1 1 1 1 1 1 1 1 1 1 2 2 2 2 3 3 3 3 2 2 1 1 2 2 3 3 3 3 2 3 4 4 4 5 6 7 9 9 10 11 11 11 11
1 1 1 1 1 1 1 1 1 1 1 2 2 2 2 2 3 2 2 2 1 1 1 2 2 2 3 3 3 3 3 4 4 3 4 5 5 4 5 8 10 10 11
2 1 1 1 2 2 3 1 0 1 1 2 2 2 2 2 2 3 2 1 1 1 2 2 2 3 3 3 3 3 3 4 4 3 4 5 4 4 4 4 8 11 11
1 1 1 1 2 3 3 1 1 1 1 2 2 2 2 2 2 2 2 2 2 2 3 2 3 3 3 3 3 3 3 3 4 4 3 4 3 4 4 5 10 11 11
1 2 2 2 2 3 4 2 1 1 1 2 2 2 2 2 2 1 1 2 2 2 3 2 2 3 2 2 2 2 2 2 3 3 2 3 3 4 5 5 8 10 11
2 2 2 2 2 3 4 2 1 1 1 2 2 2 2 2 3 1 0 1 2 2 3 3 3 3 3 3 2 1 1 2 3 3 1 1 3 4 4 3 5 10 12
2 2 2 2 2 3 4 2 1 1 1 1 2 2 2 3 3 1 1 1 2 3 1 1 2 3 2 2 2 1 1 2 2 2 1 1 2 3 4 3 3 5 6
Wind_Direction
142 138 133 123 112 100 99 65 27 17 13 3 22 44 29 27 25 14 347 1 5 3 1 358 353 347 343 338 333 328 325 321 320 321 319 314 312 311 310 308 301 293 285
148 144 139 131 123 128 121 116 58 26 357 17 23 19 18 32 30 11 355 354 7 6 358 352 350 345 341 341 338 336 331 326 323 318 314 312 310 309 309 309 306 296 293
148 146 143 142 146 137 100 70 38 49 42 37 26 15 29 30 28 19 6 358 350 360 358 351 345 342 341 340 336 334 331 326 322 319 317 315 312 309 308 306 307 301 297
138 138 138 147 136 113 98 104 85 62 41 35 19 11 17 22 22 25 21 13 3 354 350 350 345 342 342 340 339 339 335 331 324 319 317 315 312 309 309 307 307 301 296
127 134 139 138 127 112 95 84 73 87 64 29 13 16 6 18 9 21 20 16 8 2 354 350 352 348 344 340 340 339 337 332 326 320 316 315 313 310 309 308 308 302 303
132 125 135 132 131 121 105 86 87 66 89 51 34 15 355 355 12 16 10 13 9 6 359 352 349 345 346 342 340 338 336 333 331 328 323 319 315 314 312 311 311 305 302
139 130 120 140 144 146 151 128 108 77 56 60 54 13 353 358 13 360 6 15 4 360 359 357 353 349 341 346 342 337 335 334 333 332 329 325 320 317 315 313 313 311 305
136 137 140 153 147 140 128 111 102 88 47 60 92 69 359 346 350 354 359 5 358 356 1 356 349 352 343 337 336 341 337 336 336 332 330 329 325 320 317 315 315 314 311
127 130 147 142 140 134 144 152 142 129 138 10 102 117 116 270 310 318 339 355 350 349 345 341 351 346 341 341 332 336 339 338 336 331 330 329 325 321 317 316 315 314 312
122 116 118 127 136 141 149 170 154 143 145 164 202 58 146 169 194 302 316 333 337 337 332 338 338 332 336 337 333 336 337 340 339 334 330 329 325 325 319 318 318 320 319
79 102 127 127 132 152 166 168 171 153 156 168 173 159 65 45 129 216 290 312 324 314 314 314 320 325 330 333 331 333 340 342 341 338 335 332 330 328 325 324 322 322 321
27 51 87 123 150 162 172 183 182 174 175 175 181 168 170 174 209 213 265 295 301 303 307 303 313 317 320 328 331 338 341 342 342 341 340 335 332 329 330 329 328 327 327
343 311 51 117 184 195 179 167 169 184 185 182 197 214 212 218 186 197 249 283 295 296 299 301 296 305 317 325 323 333 339 342 343 343 343 341 336 330 327 330 332 331 332
218 267 5 34 15 180 174 171 187 211 201 202 222 221 237 258 208 195 202 254 305 301 297 286 300 296 313 317 315 331 333 338 341 343 343 342 341 339 338 337 336 337 336
37 51 61 82 24 193 185 182 204 217 210 217 220 225 236 253 239 237 214 200 215 293 296 279 301 306 314 316 325 326 321 329 338 341 342 342 345 346 344 345 345 345 343
58 83 210 185 217 233 212 194 214 223 212 237 222 219 238 252 251 248 234 244 227 236 277 281 285 300 309 319 328 335 331 336 342 344 350 350 348 348 348 348 347 346 346
92 168 250 225 214 213 220 201 214 207 209 243 256 241 244 243 242 253 246 246 261 244 281 295 298 309 310 314 324 330 331 331 338 348 350 351 352 351 348 348 348 346 345
291 288 285 251 238 230 220 207 216 212 223 239 249 258 265 252 243 249 246 249 254 252 267 298 311 311 309 307 321 333 337 337 336 344 350 352 354 355 353 351 349 346 345
343 338 322 277 267 265 240 223 214 218 232 244 243 244 257 254 247 257 257 256 260 279 286 287 300 307 314 324 336 334 335 335 336 340 347 351 354 356 357 355 351 349 348
333 306 298 280 279 282 261 239 219 236 247 259 260 253 249 248 247 249 252 256 268 288 304 297 306 313 317 321 328 332 333 339 335 337 343 344 346 353 356 352 351 352 351
330 315 321 317 307 277 265 271 226 254 264 272 275 269 269 274 293 267 263 261 253 277 293 298 306 317 320 326 320 316 317 326 324 328 331 334 334 337 341 343 348 351 350
342 340 317 304 294 286 295 309 312 225 257 271 276 280 279 277 294 311 293 288 275 249 262 268 288 289 295 306 309 310 317 325 316 325 330 319 329 327 325 327 340 347 348
323 314 306 296 289 288 298 291 325 250 244 264 279 280 288 293 311 282 301 307 289 291 268 248 255 272 276 279 279 297 305 309 292 297 316 304 318 318 319 327 339 346 350
293 283 287 286 290 295 301 302 315 294 255 261 263 267 272 273 280 310 314 317 284 277 285 275 252 264 274 274 255 260 275 305 296 302 317 295 309 310 318 322 334 347 351
291 285 282 279 283 291 298 304 341 269 261 272 280 277 284 275 277 322 321 310 303 294 324 337 343 348 349 346 353 15 330 323 313 307 339 307 305 314 311 314 330 343 346
274 289 297 282 274 282 292 296 317 254 261 281 286 276 281 297 300 312 253 256 290 289 298 330 350 353 348 342 4 356 270 290 308 299 307 331 313 335 320 305 315 327 336